Change the Weather History Date:

Wednesday, April 3, 2013

  Actual Average Record
Temperature  
Mean Temperature 20 °F -  
Max Temperature 39 °F 35 °F 51 °F (1998)
Min Temperature 1 °F 20 °F 1 °F (2013)
Degree Days  
Heating Degree Days 45    
Moisture  
Dew Point 13 °F    
Average Humidity 70    
Maximum Humidity 93    
Minimum Humidity 56    
Precipitation  
Precipitation 0.00 in - - ()
Sea Level Pressure  
Sea Level Pressure 30.06 in    
Wind  
Wind Speed 10 mph (South)    
Max Wind Speed 31 mph    
Max Gust Speed 44 mph    
Visibility 10 miles    
Events      
Averages and records for this station are not official NWS values.
T = Trace of Precipitation, MM = Missing Value Source: NWS Daily Summary

Daily Weather History Graph

Daily Weather History Graph

Search for Another Location

Airport or City:

Trip Planner

Search our weather history database for the weather conditions in past years. The results will help you decide how hot, cold, wet, or windy it might be!

Date:

Astronomy

Apr. 03, 2013 Rise Set
Actual Time 6:52 AM CDT 7:54 PM CDT
Civil Twilight 6:19 AM CDT 8:27 PM CDT
Nautical Twilight 5:40 AM CDT 9:06 PM CDT
Astronomical Twilight 4:59 AM CDT 9:48 PM CDT
Moon 3:08 AM CDT (4/3) 12:34 PM CDT (4/3)
Length of Visible Light 14h 07m
Length of Day
13h 02m
Last Quarter, 44% of the Moon is Illuminated
Apr 3
Last Quarter
Apr 10
New
Apr 18
First Quarter
Apr 25
Full
May 2
Last Quarter

Hourly Weather History & Observations

Time (CDT) Temp. Windchill Dew Point Humidity Pressure Visibility Wind Dir Wind Speed Gust Speed Precip Events Conditions
12:14 AM 10.4 °F 0.8 °F -0.4 °F 62% 30.30 in 10.0 mi SSE 5.8 mph - N/A   Clear
12:33 AM 10.4 °F -0.4 °F -0.4 °F 62% 30.30 in 10.0 mi SSE 6.9 mph - N/A   Clear
12:53 AM 6.8 °F -3.5 °F -2.2 °F 67% 30.29 in 10.0 mi SSE 5.8 mph - N/A   Clear
1:14 AM 8.6 °F -1.3 °F -2.2 °F 62% 30.29 in 10.0 mi SE 5.8 mph - N/A   Clear
1:33 AM 5.0 °F -5.6 °F -4.0 °F 66% 30.29 in 10.0 mi SSE 5.8 mph - N/A   Clear
1:53 AM 5.0 °F -5.6 °F -4.0 °F 66% 30.28 in 10.0 mi SE 5.8 mph - N/A   Clear
2:14 AM 6.8 °F -2.0 °F -4.0 °F 61% 30.28 in 10.0 mi SSE 4.6 mph - N/A   Clear
2:33 AM 5.0 °F -5.6 °F -5.8 °F 61% 30.28 in 10.0 mi SSE 5.8 mph - N/A   Clear
2:53 AM 6.8 °F -3.5 °F -4.0 °F 61% 30.27 in 10.0 mi SE 5.8 mph - N/A   Clear
3:14 AM 6.8 °F -3.5 °F -4.0 °F 61% 30.26 in 10.0 mi SSE 5.8 mph - N/A   Clear
3:33 AM 1.4 °F -9.9 °F -5.8 °F 72% 30.26 in 10.0 mi SSE 5.8 mph - N/A   Clear
3:53 AM 3.2 °F -7.8 °F -5.8 °F 66% 30.26 in 10.0 mi South 5.8 mph - N/A   Clear
4:14 AM 3.2 °F -7.8 °F -5.8 °F 66% 30.26 in 10.0 mi SSE 5.8 mph - N/A   Clear
4:33 AM 3.2 °F -6.2 °F -5.8 °F 66% 30.25 in 10.0 mi SSE 4.6 mph - N/A   Clear
4:53 AM 5.0 °F -5.6 °F -5.8 °F 61% 30.25 in 10.0 mi South 5.8 mph - N/A   Clear
5:13 AM 3.2 °F -7.8 °F -5.8 °F 66% 30.25 in 10.0 mi SSE 5.8 mph - N/A   Clear
5:33 AM 1.4 °F -8.3 °F -5.8 °F 72% 30.24 in 10.0 mi South 4.6 mph - N/A   Clear
5:54 AM 1.4 °F -6.2 °F -5.8 °F 72% 30.24 in 10.0 mi South 3.5 mph - N/A   Clear
6:13 AM 1.4 °F - -5.8 °F 72% 30.23 in 10.0 mi Calm Calm - N/A   Clear
6:33 AM 1.4 °F -6.2 °F -5.8 °F 72% 30.22 in 10.0 mi SSE 3.5 mph - N/A   Clear
6:54 AM 1.4 °F -9.9 °F -5.8 °F 72% 30.21 in 10.0 mi SSE 5.8 mph - N/A   Scattered Clouds
7:13 AM 3.2 °F -7.8 °F -5.8 °F 66% 30.21 in 10.0 mi South 5.8 mph - N/A   Scattered Clouds
7:33 AM 5.0 °F -6.9 °F -2.2 °F 72% 30.21 in 10.0 mi South 6.9 mph - N/A   Clear
7:54 AM 5.0 °F -6.9 °F -2.2 °F 72% 30.20 in 10.0 mi SSE 6.9 mph - N/A   Scattered Clouds
8:13 AM 8.6 °F -2.6 °F 1.4 °F 73% 30.20 in 10.0 mi SSE 6.9 mph - N/A   Mostly Cloudy
8:33 AM 8.6 °F -4.7 °F 1.4 °F 73% 30.18 in 10.0 mi South 9.2 mph - N/A   Mostly Cloudy
8:54 AM 10.4 °F -3.3 °F 3.2 °F 73% 30.17 in 10.0 mi South 10.4 mph - N/A   Mostly Cloudy
9:13 AM 12.2 °F -0.2 °F 6.8 °F 79% 30.16 in 10.0 mi SSE 9.2 mph - N/A   Scattered Clouds
9:33 AM 15.8 °F 3.4 °F 8.6 °F 73% 30.15 in 10.0 mi SSE 10.4 mph - N/A   Clear
9:53 AM 17.6 °F 2.7 °F 8.6 °F 68% 30.13 in 10.0 mi SSE 16.1 mph - N/A   Scattered Clouds
10:13 AM 17.6 °F 1.3 °F 8.6 °F 68% 30.12 in 10.0 mi SSE 19.6 mph - N/A   Clear
10:34 AM 19.4 °F 3.6 °F 10.4 °F 68% 30.10 in 10.0 mi SSE 19.6 mph - N/A   Scattered Clouds
10:54 AM 21.2 °F 6.4 °F 12.2 °F 68% 30.10 in 10.0 mi SSE 18.4 mph - N/A   Mostly Cloudy
11:13 AM 23.0 °F 9.6 °F 14.0 °F 68% 30.09 in 10.0 mi SSE 16.1 mph - N/A   Mostly Cloudy
11:34 AM 24.8 °F 11.9 °F 17.6 °F 74% 30.08 in 10.0 mi SSE 16.1 mph - N/A   Scattered Clouds
11:54 AM 26.6 °F 13.8 °F 17.6 °F 69% 30.07 in 10.0 mi SSE 17.3 mph - N/A   Scattered Clouds
12:13 PM 26.6 °F 13.8 °F 17.6 °F 69% 30.05 in 10.0 mi SSE 17.3 mph - N/A   Scattered Clouds
12:34 PM 28.4 °F 15.4 °F 17.6 °F 64% 30.04 in 10.0 mi SSE 19.6 mph - N/A   Scattered Clouds
12:54 PM 28.4 °F 16.2 °F 19.4 °F 69% 30.02 in 10.0 mi SSE 17.3 mph - N/A   Scattered Clouds
1:13 PM 30.2 °F 18.9 °F 21.2 °F 69% 30.01 in 10.0 mi SSE 16.1 mph - N/A   Scattered Clouds
1:34 PM 30.2 °F 18.1 °F 21.2 °F 69% 29.99 in 10.0 mi SSE 18.4 mph - N/A   Mostly Cloudy
1:54 PM 30.2 °F 17.4 °F 21.2 °F 69% 29.97 in 10.0 mi SSE 20.7 mph - N/A   Scattered Clouds
2:13 PM 32.0 °F 19.5 °F 23.0 °F 69% 29.95 in 10.0 mi SSE 21.9 mph - N/A   Clear
2:34 PM 33.8 °F 22.2 °F 24.8 °F 70% 29.94 in 10.0 mi SSE 20.7 mph - N/A   Clear
2:54 PM 33.8 °F 21.6 °F 24.8 °F 70% 29.92 in 10.0 mi SSE 23.0 mph - N/A   Clear
3:13 PM 35.6 °F 24.2 °F 24.8 °F 65% 29.91 in 10.0 mi SSE 21.9 mph - N/A   Clear
3:34 PM 35.6 °F 24.0 °F 24.8 °F 65% 29.89 in 10.0 mi SSE 23.0 mph - N/A   Clear
3:53 PM 35.6 °F 24.2 °F 24.8 °F 65% 29.88 in 10.0 mi South 21.9 mph - N/A   Clear
4:13 PM 35.6 °F 24.5 °F 24.8 °F 65% 29.86 in 10.0 mi SSE 20.7 mph - N/A   Scattered Clouds
4:34 PM 35.6 °F 25.2 °F 26.6 °F 70% 29.86 in 10.0 mi South 18.4 mph - N/A   Scattered Clouds
4:53 PM 35.6 °F 28.0 °F 28.4 °F 75% 29.86 in 10.0 mi South 10.4 mph - N/A   Scattered Clouds
5:13 PM 35.6 °F 26.6 °F 28.4 °F 75% 29.85 in 10.0 mi South 13.8 mph - N/A   Scattered Clouds
5:33 PM 37.4 °F 27.8 °F 26.6 °F 65% 29.86 in 10.0 mi SSW 17.3 mph 21.9 mph N/A   Mostly Cloudy
5:54 PM 39.2 °F 28.0 °F 24.8 °F 56% 29.86 in 10.0 mi SW 26.5 mph 34.5 mph N/A   Mostly Cloudy
6:13 PM 39.2 °F 27.2 °F 26.6 °F 61% 29.86 in 10.0 mi SW 31.1 mph 43.7 mph N/A   Scattered Clouds
6:34 PM 37.4 °F 26.1 °F 26.6 °F 65% 29.87 in 10.0 mi SW 24.2 mph 38.0 mph N/A   Mostly Cloudy
6:53 PM 37.4 °F 26.4 °F 26.6 °F 65% 29.86 in 10.0 mi SW 23.0 mph 27.6 mph N/A   Mostly Cloudy
7:13 PM 37.4 °F 26.9 °F 28.4 °F 70% 29.84 in 10.0 mi SSW 20.7 mph 27.6 mph N/A   Overcast
7:33 PM 37.4 °F 26.9 °F 28.4 °F 70% 29.88 in 10.0 mi WSW 20.7 mph 24.2 mph N/A   Mostly Cloudy
7:53 PM 37.4 °F 28.5 °F 28.4 °F 70% 29.88 in 10.0 mi WSW 15.0 mph 18.4 mph N/A   Overcast
8:14 PM 37.4 °F 27.5 °F 28.4 °F 70% 29.88 in 10.0 mi WSW 18.4 mph 25.3 mph N/A   Overcast
8:33 PM 37.4 °F 28.5 °F 28.4 °F 70% 29.87 in 10.0 mi WSW 15.0 mph 19.6 mph N/A   Overcast
8:54 PM 35.6 °F 27.5 °F 28.4 °F 75% 29.88 in 10.0 mi West 11.5 mph - N/A   Overcast
9:13 PM 35.6 °F 28.0 °F 28.4 °F 75% 29.90 in 10.0 mi West 10.4 mph - N/A   Overcast
9:34 PM 35.6 °F 27.1 °F 28.4 °F 75% 29.90 in 10.0 mi West 12.7 mph - N/A   Overcast
9:53 PM 35.6 °F 28.6 °F 28.4 °F 75% 29.90 in 10.0 mi West 9.2 mph - N/A   Overcast
10:14 PM 33.8 °F 26.4 °F 28.4 °F 81% 29.91 in 10.0 mi West 9.2 mph - N/A   Scattered Clouds
10:33 PM 33.8 °F 28.6 °F 28.4 °F 81% 29.91 in 10.0 mi West 5.8 mph - N/A   Clear
10:54 PM 33.8 °F 28.6 °F 28.4 °F 81% 29.91 in 10.0 mi West 5.8 mph - N/A   Clear
11:14 PM 32.0 °F 26.4 °F 28.4 °F 87% 29.92 in 10.0 mi West 5.8 mph - N/A   Clear
11:33 PM 30.2 °F 23.4 °F 28.4 °F 93% 29.92 in 10.0 mi West 6.9 mph - N/A   Clear
11:54 PM 30.2 °F 21.9 °F 28.4 °F 93% 29.92 in 10.0 mi West 9.2 mph - N/A   Clear